SCP
-0 0 0 0 0 0 0 0 -0 0 0 0 0 0 0 -0 -0 -0 -0 -0 -0 -0 -0 0 0 0 0 0 0 0 0 0 0 0 0 0 0 0 0 0 0 0 0 0
-0 0 0 0 0 0 0 0 0 0 0 0 -0 -0 -0 -0 -0 -0 -0 -0 -0 0 -0 -0 0 0 0 0 0 0 0 0 -0 -0 -0 0 0 0 0 0 0 0 0 0
0 0 0 -0 0 0 0 0 0 0 0 -0 -0 0 -0 -0 -0 -0 -0 -0 -0 -0 -0 0 -0 0 0 0 0 0 0 -0 -0 -0 -0 0 0 -0 0 0 0 0 0 0
0 0 0 -0 0 -0 0 0 0 0 0 0 -0 -0 -0 0 -0 -0 -0 -0 -0 -0 -0 -0 -0 0 0 0 0 0 -0 0 0 -0 -0 0 -0 -0 0 0 0 0 0 0
0 0 0 -0 0 0 0 0 0 0 -0 -0 -0 0 -0 0 -0 -0 -0 -0 -0 -0 -0 -0 -0 0 0 0 0 0 -0 0 0 0 -0 0 0 0 0 0 0 0 0 0
0 0 0 0 0 0 0 0 0 0 0 0 0 0 0 0 -0 -0 -0 -0 -0 -0 -0 0 0 0 0 0 0 0 0 0 0 0 0 0 0 0 0 0 0 0 0 0
0 0 0 0 -0 0 0 0 0 0 0 0 0 0 0 0 -0 -0 -0 -0 -0 -0 -0 0 0 0 0 0 0 0 0 0 0 0 0 0 0 0 0 0 0 0 0 0
0 0 0 0 0 0 0 0 0 0 0 0 0 0 0 0 0 -0 -0 -0 -0 0 -0 -0 -0 -0 -0 -0 0 0 0 0 0 -0 -0 0 0 0 0 0 0 0 0 0
0 0 0 0 0 0 0 0 0 0 0 0 0 0 0 0 0 0 -0 -0 -0 -0 -0 -0 -0 -0 -0 -0 -0 -0 0 0 -0 0 0 -0 0 0 0 0 0 0 0 0
0 0 0 0 0 0 0 0 0 0 0 0 0 0 0 0 0 -0 -0 -0 -0 -0 -0 -0 -0 -0 -0 -0 -0 -0 -0 -0 -0 -0 0 -0 0 0 0 0 0 0 0 0
0 0 0 0 0 0 0 0 0 0 0 0 0 0 0 0 0 0 0 -0 -0 -0 -0 -0 -0 -0 -0 -0 -0 -0 0 0 0 0 0 0 0 0 0 0 0 0 0 0
0 0 0 0 0 0 0 0 0 0 0 0 0 0 0 0 0 0 0 -0 0 -0 -0 -0 -0 -0 -0 -0 0 -0 0 0 0 0 0 0 0 0 0 0 0 0 0 0
0 0 0 0 0 0 0 0 0 0 0 0 0 0 0 0 0 0 0 0 0 -0 0 0 -0 -0 -0 0 0 0 0 0 0 0 0 0 0 0 0 0 0 0 0 0
0 0 0 0 0 0 0 0 0 0 0 0 0 0 0 0 -0 0 0 -0 -0 -0 0 0 -0 -0 -0 0 0 0 0 0 0 0 0 0 0 0 0 0 0 0 0 0
0 0 0 0 0 0 0 0 0 0 0 0 0 0 0 0 0 -0 -0 -0 -0 0 -0 -0 -0 -0 0 0 0 0 0 0 0 0 0 0 0 0 0 0 0 0 0 0
0 0 0 0 0 0 0 0 0 0 -0 0 0 0 0 0 0 -0 -0 -0 0 0 -0 -0 -0 -0 0 0 0 0 0 0 0 0 0 0 0 0 0 0 0 0 0 0
0 0 0 0 0 0 0 0 0 0 0 0 0 0 0 0 0 0 0 0 0 -0 -0 -0 -0 -0 0 0 0 0 0 0 0 0 0 0 0 0 0 0 0 0 0 0
0 0 0 0 0 0 0 0 0 0 0 0 0 0 0 0 0 -0 0 -0 -0 -0 -0 -0 -0 0 0 0 0 0 0 0 0 0 0 0 0 0 0 0 0 0 0 0
0 0 0 0 0 0 0 0 0 0 0 0 0 0 0 0 -0 -0 -0 -0 -0 -0 -0 -0 0 0 0 0 0 0 0 0 0 0 0 0 0 0 0 0 0 0 0 0
0 0 0 0 0 0 0 0 0 0 0 0 0 0 0 0 -0 -0 -0 -0 -0 0 0 0 0 0 0 0 0 0 0 0 0 0 0 0 0 0 0 0 0 0 0 0
0 0 0 0 0 0 0 0 0 0 0 0 0 0 0 0 -0 0 -0 0 0 0 0 0 0 0 0 0 0 0 0 0 0 0 0 0 0 0 0 0 0 0 0 0
0 0 0 0 0 0 0 0 0 0 0 0 0 0 0 0 0 0 0 0 0 0 0 0 0 0 0 0 0 0 0 0 0 0 0 0 0 0 0 0 0 0 0 0
0 0 0 0 0 0 0 0 0 0 0 0 0 0 0 0 0 0 0 0 0 0 0 0 0 0 0 0 0 0 0 0 0 0 0 0 0 0 0 0 0 0 0 0
0 0 0 0 0 0 0 0 0 0 0 0 0 0 0 0 0 0 0 0 0 0 0 0 0 0 0 0 0 0 0 0 0 0 0 0 0 0 0 0 0 0 0 0
0 0 0 0 0 0 0 0 0 0 0 0 0 0 0 0 0 0 0 0 0 0 0 0 0 0 0 0 0 0 0 0 0 0 0 0 0 0 0 0 0 0 0 0
0 0 0 0 0 0 0 0 0 0 0 0 0 0 0 0 0 0 0 0 0 0 0 0 0 0 0 0 0 0 0 0 0 0 0 0 0 0 0 0 0 0 0 0
0 0 0 0 0 0 0 0 0 0 0 0 0 0 0 0 0 0 0 0 0 0 0 0 0 0 0 0 0 0 0 0 0 0 0 0 0 0 0 0 0 0 0 0
Wind_Speed_500mb
89 79 58 43 61 61 69 34 6 43 39 9 8 5 7 10 10 5 2 7 9 12 13 9 4 6 2 10 2 6 5 8 9 2 9 6 3 2 6 8 6 4 5 7
98 76 60 45 74 84 61 22 19 34 39 6 6 7 5 5 9 7 6 6 7 11 14 7 4 4 6 15 7 5 1 3 5 10 8 6 2 3 7 9 6 3 7 7
92 77 26 45 84 82 26 14 8 13 28 14 5 7 8 8 4 5 5 4 3 5 4 5 7 4 4 10 7 8 7 6 9 11 10 6 7 8 6 8 6 6 6 7
96 55 26 67 86 84 24 8 8 18 13 16 10 7 14 8 7 1 4 4 2 7 5 6 8 8 4 8 10 8 6 5 5 4 4 5 5 7 10 10 8 8 6 13
89 52 47 91 100 81 32 17 13 22 12 22 20 6 14 12 6 7 5 8 2 6 8 4 10 10 5 6 1 3 6 1 5 10 7 9 0 1 6 8 7 6 8 4
63 24 68 92 100 67 23 19 21 23 19 10 13 8 12 17 17 12 11 14 11 15 4 8 19 16 9 10 11 4 5 7 6 5 10 10 9 6 6 3 3 8 12 8
35 32 88 81 100 64 10 30 24 11 5 7 10 12 7 14 6 13 6 13 9 7 12 16 23 23 20 18 11 7 7 6 5 3 6 3 8 8 3 13 9 11 13 9
15 58 77 81 85 40 20 27 9 8 7 8 9 16 12 19 28 10 9 9 13 24 11 8 9 8 6 7 9 9 8 7 4 7 6 6 3 3 3 4 3 9 9 7
20 67 61 78 84 43 24 18 12 10 17 5 5 9 13 8 7 7 7 14 19 8 5 5 7 8 6 5 2 4 9 7 6 5 6 8 9 5 1 5 6 2 16 9
47 49 54 56 79 51 27 12 9 9 19 11 9 6 8 14 10 7 6 8 6 3 4 3 4 4 9 8 12 9 4 2 8 4 3 10 7 6 2 8 8 12 8 6
33 45 46 52 53 56 32 15 11 8 17 23 11 14 13 14 12 8 13 9 3 5 5 4 4 4 5 5 6 8 10 9 6 4 4 13 6 3 9 7 13 8 4 13
24 39 50 51 39 56 32 19 14 16 19 25 32 30 24 19 14 17 8 6 6 7 7 2 4 2 3 6 5 3 2 9 7 11 8 7 6 12 14 15 10 4 14 21
29 41 36 31 37 48 39 25 26 21 38 24 14 21 21 15 16 15 8 7 9 8 9 10 4 5 3 5 7 2 1 3 5 4 2 9 20 16 10 5 3 10 15 19
29 37 35 30 33 34 36 34 28 19 22 11 12 12 13 12 10 9 9 19 19 19 11 7 4 4 2 4 2 4 7 6 6 3 9 17 7 5 2 4 11 13 14 18
24 36 29 32 43 34 33 31 26 23 2 12 12 20 17 13 11 13 17 22 24 12 7 6 2 2 4 3 2 4 4 7 7 8 14 8 9 5 2 10 17 17 23 27
31 34 29 37 35 29 33 9 16 18 22 16 5 9 12 15 15 16 18 21 14 9 8 7 6 4 3 4 3 6 6 11 4 10 11 3 2 3 5 18 18 21 24 28
32 28 36 45 41 41 13 4 22 27 13 10 9 4 6 11 15 13 16 12 10 7 7 5 6 4 4 4 4 2 13 14 13 9 6 8 6 4 12 17 23 27 30 34
33 30 38 47 32 19 13 14 40 28 6 7 7 5 4 5 6 6 6 6 6 10 6 5 5 4 3 1 5 17 16 11 7 3 2 2 4 9 14 20 26 32 36 39
33 35 50 27 16 8 20 29 23 14 5 11 7 9 7 12 7 7 6 6 5 4 4 4 3 1 2 6 11 20 15 6 3 1 4 6 12 17 23 28 31 35 37 40
46 54 14 10 12 29 29 14 8 6 3 6 7 10 6 11 5 5 6 5 2 2 1 4 3 3 3 10 15 13 9 4 2 10 12 24 30 33 36 36 35 36 40 47
62 12 7 13 39 21 7 5 3 3 6 6 10 10 9 8 6 5 4 4 2 4 0 5 4 5 11 17 13 10 5 3 9 16 21 26 31 37 39 38 37 38 42 44
26 14 26 32 8 4 6 2 5 4 9 9 14 13 13 12 8 10 3 5 3 3 4 2 4 5 23 22 15 9 8 13 17 22 26 27 31 35 39 41 40 42 44 46
39 11 14 10 3 7 10 11 7 5 17 20 20 7 11 11 9 10 5 5 5 12 5 5 7 19 29 22 14 13 15 19 23 23 24 31 35 37 41 45 42 45 47 46
13 14 6 9 4 9 8 7 8 10 26 51 38 17 10 9 7 6 9 3 6 5 0 8 6 30 31 22 18 21 23 21 21 22 27 34 41 46 47 46 44 45 42 32
7 6 10 7 5 5 10 24 22 22 63 41 31 19 12 5 7 2 6 5 3 8 8 6 14 29 25 21 21 26 25 19 17 22 29 35 41 48 52 48 46 41 35 31
3 4 8 9 7 2 8 20 35 63 45 22 12 7 8 3 7 6 7 12 10 7 6 9 21 25 20 22 26 29 26 22 23 25 31 39 48 56 61 60 54 44 37 38
4 1 8 12 7 13 14 40 46 46 15 4 9 9 6 5 6 2 6 9 7 11 15 18 14 16 20 26 31 31 31 32 32 33 39 50 56 62 61 57 55 50 46 48
Wind_Direction_500mb
314 317 306 274 201 174 158 162 127 157 155 133 207 221 198 190 171 148 155 119 121 182 175 182 157 144 231 347 347 48 7 107 64 348 285 277 281 114 105 112 267 71 133 274
317 316 313 224 203 172 166 133 105 160 168 178 213 246 183 206 149 156 165 199 198 182 184 118 119 34 46 36 53 110 213 56 79 358 358 7 296 231 95 101 58 197 116 260
313 314 304 235 206 184 172 162 113 142 198 227 248 167 189 170 116 122 120 122 58 100 153 83 139 103 24 18 28 41 81 95 143 179 208 154 182 209 145 102 103 166 200 140
316 314 255 216 212 181 202 184 154 171 185 202 219 165 178 140 135 239 147 98 186 190 127 118 103 71 54 356 5 20 65 109 93 90 46 124 175 193 181 171 163 147 237 158
320 304 278 203 196 176 199 156 135 162 160 168 183 216 200 156 115 125 200 125 69 117 126 182 144 132 185 208 44 77 21 97 83 354 11 52 28 222 218 206 167 231 173 126
316 265 190 195 175 176 181 133 146 144 152 139 151 207 175 155 129 54 76 139 97 74 127 92 113 139 144 177 143 127 81 119 74 295 347 4 340 254 184 178 158 187 209 167
310 195 185 181 168 179 191 154 155 115 147 131 178 145 112 126 118 124 72 102 99 147 130 95 88 82 78 80 46 112 105 87 82 194 27 14 263 351 354 111 38 40 74 70
196 174 183 179 172 179 165 168 148 114 101 117 76 107 117 92 82 74 86 59 115 136 104 69 64 360 29 22 21 70 112 116 105 142 178 277 340 330 151 159 50 359 101 44
155 174 187 173 180 172 165 173 126 102 123 353 110 104 127 116 99 32 75 101 131 127 82 94 143 186 174 192 138 24 86 89 123 137 136 206 226 227 313 141 228 112 125 94
172 181 172 173 179 196 189 183 140 116 102 33 116 119 145 124 104 108 127 130 112 80 84 107 158 216 167 157 171 172 127 90 162 171 195 278 222 254 8 123 232 142 125 135
174 169 175 165 176 197 196 189 166 133 100 62 113 130 131 133 141 140 160 102 358 59 89 122 216 127 229 103 182 177 165 150 195 128 120 264 134 90 177 152 118 129 7 337
195 182 172 175 183 187 188 182 161 134 104 110 99 100 107 126 135 125 123 114 119 149 98 100 116 119 69 149 217 51 195 180 189 178 218 42 47 135 127 167 156 245 309 309
184 177 160 173 180 189 192 178 158 130 103 91 117 78 98 105 128 138 134 149 151 142 118 145 141 113 135 158 238 149 315 186 125 115 353 106 122 122 121 122 302 302 303 300
185 176 158 169 173 173 172 172 161 149 116 99 42 79 95 101 126 128 138 154 147 132 110 89 110 127 173 204 216 181 207 128 129 76 64 120 151 134 49 351 330 316 313 319
188 154 154 163 156 150 160 173 171 169 68 125 124 90 72 94 110 117 129 143 142 124 85 63 123 132 111 28 47 272 205 183 166 222 167 126 162 209 176 323 331 324 322 322
163 158 157 154 146 151 154 139 192 184 133 111 94 92 73 97 112 120 125 130 110 98 94 108 102 94 95 108 216 345 66 91 92 150 134 110 171 190 258 327 326 317 317 318
173 147 166 159 149 157 181 164 172 179 166 118 110 80 126 103 106 98 89 93 84 88 100 80 130 120 106 117 200 349 123 106 97 96 128 134 189 261 298 312 316 318 317 320
153 153 156 138 143 172 278 174 157 164 169 127 108 89 127 129 97 89 68 77 75 50 81 91 86 113 61 204 260 151 145 132 118 87 83 177 268 294 303 309 319 318 321 325
153 147 133 124 143 135 139 147 162 193 216 121 104 138 176 144 98 94 83 60 66 49 86 67 87 47 241 252 190 164 174 209 204 258 271 275 299 312 318 322 322 321 325 328
149 139 125 135 165 154 146 156 186 195 105 80 93 119 103 135 115 75 96 35 102 69 24 97 89 228 192 115 141 151 154 158 296 321 313 319 319 326 325 321 319 319 322 323
155 170 129 147 147 147 182 182 127 145 40 72 103 119 125 123 112 116 107 128 71 141 227 127 245 212 199 167 166 162 178 275 310 308 307 308 311 316 315 313 313 317 318 318
162 151 122 135 200 148 96 296 334 78 184 137 119 134 116 111 113 101 153 110 131 185 129 159 244 244 179 181 189 202 258 290 301 305 308 313 315 318 312 309 311 314 315 320
145 140 157 166 150 55 150 199 279 145 175 158 151 125 114 112 99 84 100 99 165 142 175 228 227 189 189 199 219 251 282 300 307 309 311 312 314 314 314 310 308 311 314 321
163 171 163 177 205 242 185 191 165 138 154 143 132 105 104 112 79 119 94 164 113 60 353 234 242 203 203 216 248 278 295 300 307 317 319 321 320 317 313 310 306 307 309 319
156 181 202 197 143 109 124 122 122 129 147 137 115 86 96 58 97 106 105 91 256 203 226 230 218 196 209 235 266 286 292 294 307 319 322 324 327 326 323 319 306 301 297 307
173 149 100 136 96 131 133 139 135 147 147 124 94 102 71 65 130 97 189 127 210 236 219 205 185 204 241 274 288 290 283 280 293 306 314 320 324 325 320 313 311 302 284 295
142 115 139 169 116 151 142 149 150 153 146 129 114 77 178 105 60 124 189 193 209 189 174 171 206 264 284 292 293 287 271 273 287 299 313 315 316 318 317 317 320 308 288 278
Wind_Speed_850mb
89 79 58 43 61 61 69 34 6 43 39 9 8 5 7 10 10 5 2 7 9 12 13 9 4 6 2 10 2 6 5 8 9 2 9 6 3 2 6 8 6 4 5 7
98 76 60 45 74 84 61 22 19 34 39 6 6 7 5 5 9 7 6 6 7 11 14 7 4 4 6 15 7 5 1 3 5 10 8 6 2 3 7 9 6 3 7 7
92 77 26 45 84 82 26 14 8 13 28 14 5 7 8 8 4 5 5 4 3 5 4 5 7 4 4 10 7 8 7 6 9 11 10 6 7 8 6 8 6 6 6 7
96 55 26 67 86 84 24 8 8 18 13 16 10 7 14 8 7 1 4 4 2 7 5 6 8 8 4 8 10 8 6 5 5 4 4 5 5 7 10 10 8 8 6 13
89 52 47 91 100 81 32 17 13 22 12 22 20 6 14 12 6 7 5 8 2 6 8 4 10 10 5 6 1 3 6 1 5 10 7 9 0 1 6 8 7 6 8 4
63 24 68 92 100 67 23 19 21 23 19 10 13 8 12 17 17 12 11 14 11 15 4 8 19 16 9 10 11 4 5 7 6 5 10 10 9 6 6 3 3 8 12 8
35 32 88 81 100 64 10 30 24 11 5 7 10 12 7 14 6 13 6 13 9 7 12 16 23 23 20 18 11 7 7 6 5 3 6 3 8 8 3 13 9 11 13 9
15 58 77 81 85 40 20 27 9 8 7 8 9 16 12 19 28 10 9 9 13 24 11 8 9 8 6 7 9 9 8 7 4 7 6 6 3 3 3 4 3 9 9 7
20 67 61 78 84 43 24 18 12 10 17 5 5 9 13 8 7 7 7 14 19 8 5 5 7 8 6 5 2 4 9 7 6 5 6 8 9 5 1 5 6 2 16 9
47 49 54 56 79 51 27 12 9 9 19 11 9 6 8 14 10 7 6 8 6 3 4 3 4 4 9 8 12 9 4 2 8 4 3 10 7 6 2 8 8 12 8 6
33 45 46 52 53 56 32 15 11 8 17 23 11 14 13 14 12 8 13 9 3 5 5 4 4 4 5 5 6 8 10 9 6 4 4 13 6 3 9 7 13 8 4 13
24 39 50 51 39 56 32 19 14 16 19 25 32 30 24 19 14 17 8 6 6 7 7 2 4 2 3 6 5 3 2 9 7 11 8 7 6 12 14 15 10 4 14 21
29 41 36 31 37 48 39 25 26 21 38 24 14 21 21 15 16 15 8 7 9 8 9 10 4 5 3 5 7 2 1 3 5 4 2 9 20 16 10 5 3 10 15 19
29 37 35 30 33 34 36 34 28 19 22 11 12 12 13 12 10 9 9 19 19 19 11 7 4 4 2 4 2 4 7 6 6 3 9 17 7 5 2 4 11 13 14 18
24 36 29 32 43 34 33 31 26 23 2 12 12 20 17 13 11 13 17 22 24 12 7 6 2 2 4 3 2 4 4 7 7 8 14 8 9 5 2 10 17 17 23 27
31 34 29 37 35 29 33 9 16 18 22 16 5 9 12 15 15 16 18 21 14 9 8 7 6 4 3 4 3 6 6 11 4 10 11 3 2 3 5 18 18 21 24 28
32 28 36 45 41 41 13 4 22 27 13 10 9 4 6 11 15 13 16 12 10 7 7 5 6 4 4 4 4 2 13 14 13 9 6 8 6 4 12 17 23 27 30 34
33 30 38 47 32 19 13 14 40 28 6 7 7 5 4 5 6 6 6 6 6 10 6 5 5 4 3 1 5 17 16 11 7 3 2 2 4 9 14 20 26 32 36 39
33 35 50 27 16 8 20 29 23 14 5 11 7 9 7 12 7 7 6 6 5 4 4 4 3 1 2 6 11 20 15 6 3 1 4 6 12 17 23 28 31 35 37 40
46 54 14 10 12 29 29 14 8 6 3 6 7 10 6 11 5 5 6 5 2 2 1 4 3 3 3 10 15 13 9 4 2 10 12 24 30 33 36 36 35 36 40 47
62 12 7 13 39 21 7 5 3 3 6 6 10 10 9 8 6 5 4 4 2 4 0 5 4 5 11 17 13 10 5 3 9 16 21 26 31 37 39 38 37 38 42 44
26 14 26 32 8 4 6 2 5 4 9 9 14 13 13 12 8 10 3 5 3 3 4 2 4 5 23 22 15 9 8 13 17 22 26 27 31 35 39 41 40 42 44 46
39 11 14 10 3 7 10 11 7 5 17 20 20 7 11 11 9 10 5 5 5 12 5 5 7 19 29 22 14 13 15 19 23 23 24 31 35 37 41 45 42 45 47 46
13 14 6 9 4 9 8 7 8 10 26 51 38 17 10 9 7 6 9 3 6 5 0 8 6 30 31 22 18 21 23 21 21 22 27 34 41 46 47 46 44 45 42 32
7 6 10 7 5 5 10 24 22 22 63 41 31 19 12 5 7 2 6 5 3 8 8 6 14 29 25 21 21 26 25 19 17 22 29 35 41 48 52 48 46 41 35 31
3 4 8 9 7 2 8 20 35 63 45 22 12 7 8 3 7 6 7 12 10 7 6 9 21 25 20 22 26 29 26 22 23 25 31 39 48 56 61 60 54 44 37 38
4 1 8 12 7 13 14 40 46 46 15 4 9 9 6 5 6 2 6 9 7 11 15 18 14 16 20 26 31 31 31 32 32 33 39 50 56 62 61 57 55 50 46 48
Wind_Direction_850mb
314 317 306 274 201 174 158 162 127 157 155 133 207 221 198 190 171 148 155 119 121 182 175 182 157 144 231 347 347 48 7 107 64 348 285 277 281 114 105 112 267 71 133 274
317 316 313 224 203 172 166 133 105 160 168 178 213 246 183 206 149 156 165 199 198 182 184 118 119 34 46 36 53 110 213 56 79 358 358 7 296 231 95 101 58 197 116 260
313 314 304 235 206 184 172 162 113 142 198 227 248 167 189 170 116 122 120 122 58 100 153 83 139 103 24 18 28 41 81 95 143 179 208 154 182 209 145 102 103 166 200 140
316 314 255 216 212 181 202 184 154 171 185 202 219 165 178 140 135 239 147 98 186 190 127 118 103 71 54 356 5 20 65 109 93 90 46 124 175 193 181 171 163 147 237 158
320 304 278 203 196 176 199 156 135 162 160 168 183 216 200 156 115 125 200 125 69 117 126 182 144 132 185 208 44 77 21 97 83 354 11 52 28 222 218 206 167 231 173 126
316 265 190 195 175 176 181 133 146 144 152 139 151 207 175 155 129 54 76 139 97 74 127 92 113 139 144 177 143 127 81 119 74 295 347 4 340 254 184 178 158 187 209 167
310 195 185 181 168 179 191 154 155 115 147 131 178 145 112 126 118 124 72 102 99 147 130 95 88 82 78 80 46 112 105 87 82 194 27 14 263 351 354 111 38 40 74 70
196 174 183 179 172 179 165 168 148 114 101 117 76 107 117 92 82 74 86 59 115 136 104 69 64 360 29 22 21 70 112 116 105 142 178 277 340 330 151 159 50 359 101 44
155 174 187 173 180 172 165 173 126 102 123 353 110 104 127 116 99 32 75 101 131 127 82 94 143 186 174 192 138 24 86 89 123 137 136 206 226 227 313 141 228 112 125 94
172 181 172 173 179 196 189 183 140 116 102 33 116 119 145 124 104 108 127 130 112 80 84 107 158 216 167 157 171 172 127 90 162 171 195 278 222 254 8 123 232 142 125 135
174 169 175 165 176 197 196 189 166 133 100 62 113 130 131 133 141 140 160 102 358 59 89 122 216 127 229 103 182 177 165 150 195 128 120 264 134 90 177 152 118 129 7 337
195 182 172 175 183 187 188 182 161 134 104 110 99 100 107 126 135 125 123 114 119 149 98 100 116 119 69 149 217 51 195 180 189 178 218 42 47 135 127 167 156 245 309 309
184 177 160 173 180 189 192 178 158 130 103 91 117 78 98 105 128 138 134 149 151 142 118 145 141 113 135 158 238 149 315 186 125 115 353 106 122 122 121 122 302 302 303 300
185 176 158 169 173 173 172 172 161 149 116 99 42 79 95 101 126 128 138 154 147 132 110 89 110 127 173 204 216 181 207 128 129 76 64 120 151 134 49 351 330 316 313 319
188 154 154 163 156 150 160 173 171 169 68 125 124 90 72 94 110 117 129 143 142 124 85 63 123 132 111 28 47 272 205 183 166 222 167 126 162 209 176 323 331 324 322 322
163 158 157 154 146 151 154 139 192 184 133 111 94 92 73 97 112 120 125 130 110 98 94 108 102 94 95 108 216 345 66 91 92 150 134 110 171 190 258 327 326 317 317 318
173 147 166 159 149 157 181 164 172 179 166 118 110 80 126 103 106 98 89 93 84 88 100 80 130 120 106 117 200 349 123 106 97 96 128 134 189 261 298 312 316 318 317 320
153 153 156 138 143 172 278 174 157 164 169 127 108 89 127 129 97 89 68 77 75 50 81 91 86 113 61 204 260 151 145 132 118 87 83 177 268 294 303 309 319 318 321 325
153 147 133 124 143 135 139 147 162 193 216 121 104 138 176 144 98 94 83 60 66 49 86 67 87 47 241 252 190 164 174 209 204 258 271 275 299 312 318 322 322 321 325 328
149 139 125 135 165 154 146 156 186 195 105 80 93 119 103 135 115 75 96 35 102 69 24 97 89 228 192 115 141 151 154 158 296 321 313 319 319 326 325 321 319 319 322 323
155 170 129 147 147 147 182 182 127 145 40 72 103 119 125 123 112 116 107 128 71 141 227 127 245 212 199 167 166 162 178 275 310 308 307 308 311 316 315 313 313 317 318 318
162 151 122 135 200 148 96 296 334 78 184 137 119 134 116 111 113 101 153 110 131 185 129 159 244 244 179 181 189 202 258 290 301 305 308 313 315 318 312 309 311 314 315 320
145 140 157 166 150 55 150 199 279 145 175 158 151 125 114 112 99 84 100 99 165 142 175 228 227 189 189 199 219 251 282 300 307 309 311 312 314 314 314 310 308 311 314 321
163 171 163 177 205 242 185 191 165 138 154 143 132 105 104 112 79 119 94 164 113 60 353 234 242 203 203 216 248 278 295 300 307 317 319 321 320 317 313 310 306 307 309 319
156 181 202 197 143 109 124 122 122 129 147 137 115 86 96 58 97 106 105 91 256 203 226 230 218 196 209 235 266 286 292 294 307 319 322 324 327 326 323 319 306 301 297 307
173 149 100 136 96 131 133 139 135 147 147 124 94 102 71 65 130 97 189 127 210 236 219 205 185 204 241 274 288 290 283 280 293 306 314 320 324 325 320 313 311 302 284 295
142 115 139 169 116 151 142 149 150 153 146 129 114 77 178 105 60 124 189 193 209 189 174 171 206 264 284 292 293 287 271 273 287 299 313 315 316 318 317 317 320 308 288 278